Home   Weather   Detroit   Past weeks
Flag for USA

Past Weather in Detroit, Michigan, USA — Yesterday and Last 2 Weeks

Now
29 °F

Clear.


Feels Like: 25 °F
Forecast: 43 / 26 °F
Wind: 3 mph from Northeast

Location: Detroit City Airport

Current Time: Mar 26, 2019 at 1:05:14 am

Latest Report: Mar 25, 2019 at 11:53 pm


Visibility: 10 mi

Pressure: 30.34 "Hg

Humidity: 56%

Dew Point: 15 °F

Location of DetroitLocation

Past Weather in Detroit — Graph

°F

Detroit Temperature Yesterday

Maximum temperature yesterday: 43 °F (at 2:53 pm)
Minimum temperature yesterday: 29 °F (at 10:53 pm)
Average temperature yesterday: 35 °F

High & Low Weather Summary for the Past Weeks

 TemperatureHumidityPressure
High62 °F (Mar 14, 6:53 pm)97% (Mar 21, 5:53 am)30.43 "Hg (Mar 21, 5:53 am)
Low20 °F (Mar 17, 7:53 am)21% (Mar 23, 5:53 pm)29.40 "Hg (Mar 14, 6:53 pm)
Average38 °F63%30.10 "Hg
* Reported Mar 10 11:53 pm — Mar 25 11:53 pm, Detroit. Weather by CustomWeather, © 2019

Note: Actual official high and low records may vary slightly from our data, if they occured in-between our weather recording intervals... More about our weather records

Advertising

Detroit Weather History for the Previous 24 Hours

Scroll right to see more
 ConditionsComfort  
Time TempWeatherWind HumidityBarometerVisibility
11:53 pm
Mon, Mar 25
29 °FClear.3 mph56%30.34 "Hg10 mi
10:53 pm29 °FClear.5 mph54%30.33 "Hg10 mi
9:53 pm30 °FClear.6 mph51%30.32 "Hg10 mi
8:53 pm32 °FClear.7 mph52%30.30 "Hg10 mi
7:53 pm34 °FClear.10 mph50%30.29 "Hg10 mi
6:53 pm38 °FSunny.9 mph33%30.26 "Hg10 mi
5:53 pm39 °FSunny.12 mph28%30.25 "Hg10 mi
4:53 pm41 °FSunny.13 mph26%30.25 "Hg10 mi
3:53 pm41 °FSunny.13 mph29%30.25 "Hg10 mi
2:53 pm43 °FSunny.14 mph29%30.25 "Hg10 mi
1:53 pm41 °FSunny.16 mph32%30.27 "Hg10 mi
12:53 pm39 °FSunny.10 mph38%30.27 "Hg10 mi
11:53 am38 °FSunny.13 mph39%30.27 "Hg10 mi
10:53 am37 °FSunny.16 mph39%30.27 "Hg10 mi
9:53 am34 °FSunny.14 mph46%30.26 "Hg10 mi
8:53 am32 °FSunny.13 mph50%30.25 "Hg10 mi
7:53 am30 °FSunny.14 mph54%30.24 "Hg10 mi
6:53 am31 °FClear.10 mph49%30.21 "Hg10 mi
5:53 am30 °FClear.10 mph59%30.19 "Hg10 mi
4:53 am30 °FPassing clouds.13 mph66%30.18 "Hg10 mi
3:53 am31 °FMostly cloudy.12 mph69%30.19 "Hg10 mi
2:53 am32 °FPartly cloudy.13 mph73%30.19 "Hg10 mi
1:53 am33 °FMostly cloudy.12 mph72%30.18 "Hg10 mi
Weather by CustomWeather, © 2019

See weather overview